RH
84 81 85 88 90 90 86 84 90 92 92 91 92 90 82 81 81 82 84 86 88 90 91 91 91 90 78 27 23 16 54 37 24 20 17 18 20 22 22 20 20 19 17 17 16 16 15
82 83 88 91 92 90 85 85 91 92 92 92 92 93 90 83 83 84 86 88 90 94 92 92 91 91 47 29 16 19 20 18 18 18 19 17 18 19 22 21 21 21 19 19 18 18 18
80 83 90 94 94 90 85 87 92 92 92 91 91 92 94 92 88 88 90 92 95 94 93 92 92 86 30 28 18 20 18 19 18 19 19 18 18 18 21 22 24 22 18 18 19 20 17
79 81 89 94 94 93 86 89 93 91 91 90 89 91 92 93 94 94 95 95 95 94 94 94 92 77 32 23 23 17 15 15 16 18 20 22 21 23 22 22 20 19 21 20 18 22 20
79 82 89 94 96 94 88 92 95 91 90 89 87 88 88 90 92 93 93 93 94 93 93 94 71 42 30 24 18 18 16 17 17 20 22 17 22 26 22 22 21 25 17 22 21 26 27
74 81 90 94 96 92 89 91 96 93 91 88 85 85 85 86 89 92 93 91 90 90 82 74 37 30 20 20 19 18 17 20 21 24 21 23 24 24 26 18 20 25 22 25 26 23 29
73 78 87 92 94 92 89 90 94 94 92 88 86 84 82 85 87 95 81 64 32 35 33 28 30 26 21 17 18 20 19 20 20 23 26 28 24 26 27 27 24 24 26 30 27 28 33
78 79 85 90 92 90 90 90 94 94 93 90 88 87 88 88 86 93 80 59 46 47 32 31 26 24 22 21 24 23 20 22 26 26 24 26 30 23 26 26 23 26 29 26 29 31 34
79 77 86 90 92 90 91 91 94 94 92 90 89 88 89 88 90 78 72 70 70 54 36 29 27 25 23 22 31 30 25 28 25 30 30 32 22 26 26 31 34 32 28 31 33 33 34
79 76 85 90 92 92 92 92 92 94 92 90 88 90 88 83 62 67 63 62 73 56 49 34 26 22 22 23 28 28 32 27 33 28 30 26 25 32 34 33 33 37 30 38 38 40 35
78 77 85 90 93 93 93 93 93 93 93 90 89 89 84 61 63 59 60 76 78 52 58 29 27 21 26 27 29 28 32 32 38 39 30 28 31 35 38 33 35 39 42 43 40 42 40
79 81 86 88 92 93 93 92 92 93 93 91 89 88 80 61 72 71 81 72 64 70 56 37 29 29 31 36 38 35 38 35 33 39 41 41 34 31 32 34 38 40 42 40 46 45 51
85 86 87 88 92 92 92 91 91 93 93 91 89 86 76 69 53 80 78 63 63 69 41 37 33 32 36 42 42 42 47 52 50 40 60 44 40 39 37 38 38 43 41 49 62 64 56
89 90 89 89 92 92 91 90 90 92 93 91 88 82 82 80 85 80 67 64 61 52 44 36 35 42 42 42 44 48 48 52 51 50 61 58 45 43 42 40 42 50 49 64 56 64 60
87 91 90 91 93 92 92 90 90 91 93 92 86 74 74 79 87 72 62 80 62 49 35 36 38 43 46 46 44 48 54 52 51 54 56 66 50 45 46 45 40 46 60 52 70 89 80
87 88 90 92 94 93 91 90 90 90 93 92 74 68 70 82 78 65 81 64 47 42 40 39 46 49 51 53 50 51 51 47 48 54 49 58 61 48 45 41 42 44 46 56 68 78 71
89 88 90 93 96 93 90 90 91 91 94 90 70 63 64 84 65 61 75 61 47 49 48 46 51 56 53 55 52 55 53 49 48 47 50 50 56 48 47 52 53 52 55 61 60 71 81
89 89 91 94 96 93 90 93 98 93 93 72 68 68 69 72 58 75 60 45 55 50 48 50 53 54 55 60 61 57 59 53 54 51 55 57 66 63 48 47 51 50 52 53 65 62 74
91 90 90 92 96 92 93 98 98 91 93 73 68 67 67 63 79 89 60 54 51 50 54 50 55 57 56 62 65 61 60 62 63 55 57 55 68 60 39 45 44 54 55 60 67 76 72
91 91 91 92 97 94 98 99 97 91 94 74 64 85 77 76 71 62 59 60 57 52 54 57 54 54 58 63 67 66 63 60 64 61 79 64 65 59 53 42 51 65 64 61 66 86 67
90 91 92 94 99 98 98 99 98 92 94 71 76 79 75 82 78 66 62 56 57 55 51 53 55 54 58 70 69 73 62 59 58 68 67 65 78 69 64 61 65 64 65 66 70 68 81
92 91 93 96 99 98 98 99 98 92 92 76 75 76 81 80 66 60 71 64 59 56 52 58 60 61 58 62 57 64 64 65 63 58 67 71 77 85 85 75 73 84 68 70 70 71 72
94 93 96 98 98 98 98 99 95 92 87 77 90 78 72 87 70 73 71 58 55 58 59 53 58 60 63 58 58 57 62 68 60 63 73 78 88 93 81 83 82 78 56 68 62 60 57
95 95 98 97 95 97 98 99 93 93 92 82 88 71 83 89 85 71 62 57 59 58 61 59 56 67 55 60 59 61 59 59 62 76 71 98 93 97 97 90 85 50 49 48 56 53 50
95 95 96 96 95 94 95 96 94 93 96 90 93 70 79 100 88 73 62 64 61 64 67 60 72 69 64 67 84 84 78 70 78 90 85 80 96 99 98 86 75 57 50 54 61 50 51
95 95 94 96 96 95 95 96 95 93 95 94 96 85 75 94 86 61 65 64 76 77 77 83 77 75 72 92 92 87 80 74 66 68 83 84 89 96 99 99 94 66 46 50 56 71 60
95 95 94 94 95 95 95 96 96 94 94 92 97 88 73 90 72 65 73 73 71 76 78 79 81 83 78 99 100 97 90 76 79 84 83 98 98 95 92 95 82 62 56 54 86 89 73
96 96 96 96 94 94 95 96 96 93 93 91 97 94 81 88 78 74 67 72 76 76 87 80 83 90 99 100 100 98 98 86 82 70 72 71 85 92 95 97 94 54 57 84 77 81 73
96 96 97 97 97 96 95 96 97 93 95 89 91 94 92 86 74 92 86 72 65 61 79 85 74 81 91 97 98 100 100 99 92 92 69 84 74 81 82 80 60 54 62 69 76 82 90
Wind_Speed
10 9 10 10 11 12 12 12 10 8 8 8 8 8 9 10 10 11 11 12 13 12 11 8 8 9 2 4 1 3 9 7 3 1 7 4 6 3 3 3 3 5 1 2 2 4 2
9 9 10 11 12 13 13 11 10 8 7 7 6 7 8 9 10 11 11 12 12 11 9 7 8 9 2 8 4 7 6 3 4 5 5 5 3 1 5 2 4 2 4 3 4 2 3
8 8 9 11 12 14 13 11 8 7 6 6 5 5 7 9 11 12 12 11 10 8 8 7 6 3 6 2 2 6 5 0 3 2 3 2 3 4 1 3 4 3 5 2 10 5 3
8 9 10 11 11 13 13 11 9 7 5 4 3 5 8 9 9 8 8 9 7 7 7 7 5 1 4 1 2 3 5 2 2 3 3 1 6 8 5 1 6 6 6 3 5 8 3
8 9 11 11 13 14 14 11 9 8 6 4 3 4 4 6 7 7 7 5 4 4 4 7 2 2 1 6 5 5 4 2 1 3 6 4 7 6 6 4 3 8 3 4 5 4 5
8 9 11 11 12 14 14 12 10 8 8 6 4 2 3 5 7 6 4 2 5 4 2 3 2 4 6 3 5 5 3 3 6 2 5 10 7 5 5 5 1 1 1 1 3 5 5
7 9 10 12 12 14 15 13 10 9 7 6 4 2 3 1 4 7 5 2 4 6 9 4 2 5 2 6 2 7 4 3 5 10 5 7 9 5 2 1 2 3 2 2 3 2 4
7 8 10 12 14 15 15 15 11 8 6 4 4 5 5 3 3 7 1 6 3 3 5 2 2 2 1 1 6 18 5 6 7 5 2 6 5 1 4 3 2 2 3 1 3 1 1
6 8 9 11 14 15 16 15 13 10 7 6 7 7 4 1 9 5 4 5 2 2 6 5 3 3 2 6 5 9 6 2 6 6 6 5 1 2 2 4 5 1 2 2 3 6 2
6 8 9 10 13 15 16 16 15 12 9 7 7 8 5 8 3 0 2 1 2 1 6 9 6 5 5 2 6 3 4 3 6 4 3 5 3 3 3 4 2 2 2 3 3 2 1
5 7 8 9 11 13 14 15 15 13 10 8 7 6 8 6 7 3 1 2 1 5 7 5 6 2 5 8 2 14 4 8 5 3 2 0 3 4 5 2 1 2 2 1 1 3 2
5 7 8 9 10 12 13 14 14 13 10 8 7 4 4 4 4 0 2 2 4 9 1 2 3 4 7 8 6 7 8 8 2 5 6 2 2 3 2 2 1 4 2 3 2 2 2
5 7 8 9 9 11 12 14 15 14 10 7 5 6 5 2 3 1 2 4 6 6 3 1 3 5 5 6 6 7 7 10 5 3 6 6 4 5 3 4 3 8 3 1 2 3 1
4 6 8 9 9 10 12 13 14 14 11 7 1 4 5 3 3 1 4 7 7 3 2 2 4 4 5 3 4 6 3 5 6 5 3 4 2 4 5 2 2 4 3 2 1 2 5
3 4 7 8 9 10 11 13 13 13 11 6 2 3 3 4 4 3 7 6 7 6 3 5 3 5 2 3 5 5 4 3 3 4 3 3 2 3 4 3 2 2 5 1 5 2 2
3 4 7 8 9 10 12 13 14 15 12 6 3 3 2 6 2 6 7 3 1 4 2 2 4 2 3 4 4 4 2 2 3 5 0 1 2 2 4 1 6 4 4 1 4 3 3
2 4 6 6 8 10 11 12 13 16 14 4 5 5 3 5 4 7 5 4 3 2 1 3 3 4 3 3 3 2 2 4 4 3 5 1 1 2 1 4 1 2 2 5 4 1 1
3 4 5 6 7 9 11 12 14 16 15 7 4 4 3 2 6 1 3 5 2 2 5 4 5 4 4 3 4 3 3 1 4 2 2 2 3 1 2 1 1 1 3 3 2 2 1
2 3 5 8 8 9 10 14 16 15 10 4 3 2 2 4 4 1 1 3 4 2 4 3 3 3 3 3 5 3 3 1 5 2 1 1 2 3 2 2 2 1 2 4 4 2 7
1 2 4 7 8 9 12 14 16 15 10 4 4 3 5 5 1 7 5 2 5 4 4 5 4 4 4 4 5 3 2 1 2 2 6 4 2 4 4 3 2 5 4 5 5 4 6
4 0 3 5 8 9 11 14 15 15 12 3 4 1 2 1 3 5 4 3 4 3 3 4 4 4 5 4 3 3 1 2 2 1 3 3 3 3 4 8 5 10 12 11 12 12 8
5 2 2 4 7 8 11 13 15 15 11 5 5 5 3 2 2 5 4 1 4 3 3 2 7 3 4 5 5 4 3 2 4 1 2 2 2 1 4 6 5 9 12 11 12 12 13
6 4 1 2 5 7 9 12 13 15 7 3 1 2 5 4 2 4 3 5 5 5 4 3 9 5 3 5 4 1 2 3 2 3 2 0 3 1 4 6 9 6 4 4 3 6 4
7 6 4 2 4 5 8 10 10 13 8 3 2 4 6 1 2 3 4 3 5 2 7 3 4 5 2 5 5 5 6 6 3 5 1 5 3 1 3 5 1 2 2 6 8 12 7
8 6 3 2 1 4 6 7 9 10 9 3 2 3 5 3 1 3 6 6 5 5 4 4 3 1 3 6 4 5 5 6 3 7 4 2 5 2 2 3 7 11 6 3 5 6 2
8 7 5 2 1 2 5 7 8 9 9 3 2 1 4 9 5 4 5 3 5 3 4 3 3 3 6 4 4 3 1 3 4 2 5 4 4 2 2 3 6 5 1 2 3 6 3
9 8 6 4 2 0 3 6 7 8 9 3 2 1 4 6 2 4 4 6 5 4 4 1 2 3 3 3 3 3 3 0 2 1 3 2 1 5 5 5 9 8 5 2 1 3 4
10 9 8 6 4 3 1 4 6 6 7 2 1 2 3 4 3 3 5 6 3 2 5 4 4 3 3 4 4 3 3 4 2 3 4 4 3 5 2 4 9 2 2 2 3 2 7
10 10 9 7 6 5 2 2 5 7 7 2 2 2 2 6 3 1 2 1 1 8 7 1 4 4 5 6 2 3 3 2 3 3 1 5 7 2 8 8 3 1 1 3 1 2 2
Wind_Direction
307 317 318 328 330 322 322 318 311 298 280 263 251 248 244 239 240 243 246 252 260 272 276 317 338 3 1 51 20 328 339 340 304 82 54 74 56 118 96 103 76 85 110 83 49 146 143
314 325 332 340 339 334 333 332 317 303 282 272 252 239 238 234 234 234 239 247 259 273 299 324 355 345 206 81 295 339 315 306 28 52 12 58 119 47 101 88 68 91 84 66 23 56 39
321 337 342 347 347 343 345 339 325 311 305 282 255 239 235 232 228 231 237 249 263 283 307 339 349 280 76 172 314 316 356 151 351 76 103 62 110 113 139 94 322 77 84 79 31 353 47
333 349 360 354 351 347 353 352 339 333 313 292 271 238 229 227 227 232 244 254 273 304 321 332 338 11 99 235 265 352 353 117 17 38 99 37 92 98 48 24 31 38 56 18 24 5 17
344 351 10 356 351 360 355 356 351 343 326 301 269 248 236 233 230 230 236 250 271 310 323 309 76 113 52 330 32 314 14 343 313 66 43 61 62 67 30 58 48 23 69 11 331 53 350
350 359 9 0 3 360 1 1 356 352 343 331 312 296 259 229 215 190 160 98 26 356 243 222 260 51 349 317 301 321 321 58 66 30 30 38 55 67 30 38 133 38 54 280 283 353 347
348 8 6 6 9 3 6 5 359 354 350 338 329 257 213 171 114 131 103 20 13 10 39 80 164 142 331 287 352 346 353 22 32 49 54 20 68 61 18 320 137 147 160 242 254 200 327
344 10 2 7 11 6 7 5 358 347 352 347 339 357 4 10 130 155 31 84 150 165 77 16 66 34 289 112 29 359 25 65 49 68 28 51 70 264 118 48 96 129 193 243 252 323 297
350 7 0 8 12 8 5 359 355 343 348 358 357 342 345 88 126 116 77 136 354 129 89 358 331 31 333 60 54 344 22 71 79 56 43 100 2 42 116 41 41 18 107 27 303 338 84
356 2 5 6 12 8 0 354 353 342 341 356 349 335 337 137 69 37 39 312 324 122 78 324 345 6 7 91 49 352 19 66 43 103 91 72 7 55 59 76 38 31 63 290 251 255 182
6 5 1 9 13 6 356 349 344 340 338 347 342 334 14 159 148 79 205 327 70 58 73 291 325 322 6 80 284 7 340 26 72 39 96 306 31 33 46 343 15 240 311 268 192 155 143
0 9 2 9 13 6 353 345 339 342 337 334 331 323 296 25 53 15 338 43 47 46 105 334 9 23 51 17 21 333 20 40 69 67 35 46 304 47 308 314 24 312 90 66 78 113 134
8 8 5 6 7 6 351 342 339 342 338 329 332 71 66 92 156 357 79 47 49 92 284 16 73 70 72 16 37 26 32 43 38 37 14 346 355 327 22 2 4 19 46 355 11 15 236
32 15 10 1 0 4 350 341 339 345 346 336 346 73 360 64 335 100 55 52 79 242 224 92 100 71 82 17 28 17 54 40 33 45 77 25 7 9 348 47 314 10 39 85 288 331 321
78 26 18 2 358 1 348 342 343 350 348 347 288 15 39 342 356 64 73 58 178 207 164 130 84 81 39 32 106 74 49 47 19 12 77 12 289 344 35 351 354 20 47 133 105 85 288
70 30 21 6 358 359 347 343 344 352 348 341 85 59 346 320 15 63 74 157 103 190 134 69 109 38 112 358 71 67 35 347 9 38 183 70 318 11 312 313 47 67 124 30 33 20 309
38 29 11 6 0 355 348 345 346 348 343 319 61 65 272 348 56 51 119 196 145 24 128 77 127 104 90 109 77 75 45 15 4 10 58 57 89 304 340 19 350 22 60 65 107 118 223
4 17 6 3 4 354 350 352 354 347 339 59 101 76 316 56 56 20 117 142 154 17 36 67 87 81 90 67 67 88 115 64 335 291 44 1 134 287 143 132 302 142 132 98 119 213 239
24 8 10 1 356 357 360 0 355 350 358 117 95 150 328 96 119 3 213 68 80 79 31 73 84 63 52 90 99 77 94 165 3 50 111 185 27 3 31 24 5 83 168 108 104 90 235
136 5 17 359 354 2 7 1 354 354 353 82 89 64 343 48 38 122 122 79 103 45 70 67 100 82 87 55 25 117 87 60 8 77 51 85 128 171 214 228 194 249 220 191 189 245 259
166 178 21 11 355 14 6 4 356 348 346 86 40 203 178 202 355 99 96 109 112 114 80 46 52 78 128 103 59 96 201 325 44 10 55 89 232 210 263 270 279 274 257 229 224 230 236
172 172 58 14 349 18 12 5 356 346 345 76 125 134 40 58 15 86 13 103 131 129 88 48 117 136 103 131 156 194 183 207 230 36 88 28 242 40 285 332 310 281 270 251 236 247 249
173 166 96 349 350 27 14 7 352 352 355 98 193 57 100 326 46 84 208 164 171 119 32 118 138 106 97 183 175 145 149 96 148 165 145 84 139 99 269 319 307 296 229 180 199 211 240
169 176 192 259 27 36 19 10 359 5 15 115 166 105 85 265 92 148 150 102 137 117 135 112 104 103 205 93 87 54 53 48 56 33 355 132 97 101 301 335 261 251 243 245 254 274 256
172 178 193 250 23 32 19 19 4 7 0 83 122 108 114 112 185 36 114 110 91 50 68 112 42 19 109 53 58 21 349 18 26 38 51 126 129 185 239 219 308 295 289 147 175 275 39
178 176 182 208 308 31 20 21 6 8 4 82 75 95 99 119 243 146 121 138 138 109 31 78 58 12 64 75 65 112 258 226 321 18 42 58 63 135 157 245 264 249 308 38 147 288 159
186 179 188 197 188 45 3 17 19 11 7 92 63 68 90 103 246 129 149 164 122 92 112 334 154 44 31 83 98 164 238 234 267 215 291 324 334 241 238 253 270 258 288 225 58 331 329
192 187 181 194 196 192 295 11 15 13 8 79 109 8 106 103 259 179 152 128 98 107 139 184 76 359 71 86 140 190 193 211 188 230 206 234 209 213 141 235 277 195 280 171 355 289 284
190 191 182 176 193 196 200 9 11 8 6 79 89 12 12 88 160 352 27 80 157 176 133 20 164 159 167 98 165 123 204 186 186 241 135 272 201 205 181 229 257 255 335 26 232 330 18